Location: Newark
(45.6000°N, 12.8833°E)
Time: 19:48:05
(UTC+00:00)

Tiros 1 - Visible Passes

Search period start: 21 November 2019 00:00
Search period end: 01 December 2019 00:00
Orbit: 630 x 664 km, 48.4° (Epoch: 21 November)

Date Brightness Start Highest point End Pass type
(mag) Time Alt. Az. Time Alt. Az. Time Alt. Az.
21 Nov 7.2 16:13:10 10° WNW 16:17:48 68° N 16:22:28 10° E visible
21 Nov 7.6 17:55:28 10° WNW 17:59:58 52° SSW 18:00:25 50° S visible
22 Nov 7.1 16:39:18 10° WNW 16:43:57 88° SSW 16:48:05 13° ESE visible
22 Nov 8.8 18:21:50 10° W 18:25:46 28° SW 18:25:46 28° SW visible
23 Nov 7.7 17:05:26 10° WNW 17:09:58 55° SSW 17:13:36 15° SE visible
23 Nov 9.8 18:49:03 10° WSW 18:51:19 14° SW 18:51:19 14° SW visible
24 Nov 8.8 17:31:46 10° W 17:35:48 30° SW 17:39:23 12° SSE visible
25 Nov 7.7 16:15:24 10° WNW 16:19:57 58° SSW 16:24:31 10° SE visible
25 Nov 9.8 17:58:49 10° W 18:01:27 15° SW 18:04:06 10° S visible
26 Nov 8.9 16:41:42 10° W 16:45:49 32° SW 16:49:56 10° SSE visible
27 Nov 9.9 17:08:37 10° W 17:11:29 16° SW 17:14:20 10° S visible
29 Nov 10.0 16:18:26 10° W 16:21:30 17° SW 16:24:33 10° S visible
